Location: Newark
(36.0797°N, 3.9744°E)
Time: 05:39:46
(UTC+00:00)

Vanguard 2 Rocket - Pass Details

Date: 11 December 2019
Orbit: 554 x 3326 km, 32.9° (Epoch: 22 January)

Event Time Altitude Azimuth Distance (km) Brightness Sun altitude
Rises 21:32:00 0° 277° (W) 5,010 11.1 -59.9°
Reaches altitude 10° 21:36:07 10° 273° (W) 3,552 10.2 -60.7°
Enters shadow 21:36:16 10° 272° (W) 3,498 10.2 -60.8°
Maximum altitude 21:43:58 48° 202° (SSW) 1,216 - -62.2°
Drops below altitude 10° 21:48:46 10° 128° (SE) 2,194 - -63.1°
Sets 21:50:47 0° 121° (ESE) 2,952 - -63.5°
